阿斯特拉 1N星 (ASTRA 1N)

导读

ASTRA 1N是SES公司发射的商业通信卫星,于2011年8月6日发射升空,由Astrium公司基于Eurostar E3000平台建造,发射质量达5350千克,搭载52路Ku波段转发器。该卫星定点于东经28.2°轨位,主要为欧洲地区提供广播电视传输与宽带互联网接入服务,接替了原ASTRA 1N卫星的业务,增强了SES在该轨位的容量与信号可靠性,支持高清电视广播服务,目前已成为SES Astra卫星编队中承担欧洲家庭收视业务的核心卫星之一。

Basic Information
目录编号:
37775
目录名称:
ASTRA 1N
国际标识:
2011-041A
轨道中心:
EARTH
卫星名称:
阿斯特拉 1N星
卫星全名:
阿斯特拉 1N星 (ASTRA 1N)
卫星状态:
在轨 (已飞行5429 天)
发射日期:
2011-08-06 UTC
国别 :
(SES)
星等 :
--
Orbit Information
数据来源 国际轨道数据 AOE轨道数据
星历时间 2026-06-17T00:31:43+0800
16小时前
查看轨道信息
2026-06-17T03:00:00+0800
13小时前
查看轨道信息
半长轴 42164.924km 42164.896km
偏心率 0.000603 0.0005956
轨道倾角 0.096° 0.097°
近地点辐角 49.373° 47.346°
升交点赤经 46.054° 47.518°
平近点角 76.652° 114.386°
近地点 35761.361km 35761.645km
远地点 35812.213km 35811.873km
周期 1436.107分钟 1436.105分钟
每日圈数 1.002711 1.002712
Detailed Information
卫星平台:
Eurostar E3000
平衡模式:
三轴稳定
覆盖范围:
全球
运营商:
欧洲卫星公司
运营商所在国:
卢森堡
制造商(研发单位):
空客防务与航天公司
制造商所在国:
法国大都会
使用方式:
暂无
Satellite Introduction
阿斯特拉卫星是由SES阿斯特拉运营的商业通信卫星,主要提供电视直播到户业务。Astra卫星包括三个系列共19颗卫星,分别定点在三个不同轨位:Astra-1系列包括十三颗卫星,定点东经19.2度;Astra-2系列包括4颗卫星,定点东经28.2度;Astra-3系列包括2颗卫星,定点东经23.5度。该卫星仍在工作。
2D Orbit Map
3D Orbit Map
Orbit Altitude Analysis Chart
Orbit Inclination Analysis Chart
Orbit Comprehensive Analysis Chart
View Comprehensive Chart